AFL260 EETN-UWWW

Flight info

Callsign AFL260
Flight time 2h 13m
Altitude 37000
Route MOHNI DCT RATMU DCT INLOG T73 DESUD P164 ROKUR T784 OTKOL T787 OKSUD T778 RUBEK RUBEK7S
Aircraft A320/M-SDE3FGHIRWY/LB1

Departure

Time 2025-10-08 23:29
Airport Lennart Meri Tallinn Airport (EETN)

Arrival

Time 2025-10-09 01:43
Airport Kurumoch International Airport (UWWW)
Time Latitude Longitude Altitude Speed Heading
2025-10-08 23:05 59.41571 24.80845 162 ft 0 kts 180°
2025-10-08 23:21 59.41656 24.80861 162 ft 3 kts 232°
2025-10-08 23:22 59.41665 24.80923 162 ft 1 kts 270°
2025-10-08 23:25 59.41666 24.80636 162 ft 8 kts 272°
2025-10-08 23:25 59.41645 24.80525 162 ft 5 kts 211°
2025-10-08 23:26 59.41616 24.80512 162 ft 3 kts 186°
2025-10-08 23:26 59.41493 24.80481 162 ft 9 kts 192°
2025-10-08 23:27 59.41354 24.80636 160 ft 10 kts 136°
2025-10-08 23:27 59.41333 24.80839 160 ft 27 kts 91°
2025-10-08 23:28 59.41321 24.83885 265 ft 173 kts 90°
2025-10-08 23:28 59.41453 24.88713 1920 ft 189 kts 69°
2025-10-08 23:29 59.43681 24.92436 2671 ft 240 kts 33°
2025-10-08 23:29 59.45120 24.94382 3120 ft 263 kts 35°
2025-10-08 23:30 59.48316 24.98855 4460 ft 292 kts 35°
2025-10-08 23:30 59.51646 25.03598 6365 ft 296 kts 34°
2025-10-08 23:31 59.54999 25.08374 8177 ft 302 kts 34°
2025-10-08 23:31 59.60253 25.15878 10398 ft 328 kts 35°
2025-10-08 23:32 59.64220 25.21557 11015 ft 371 kts 35°
2025-10-08 23:32 59.68452 25.27644 12351 ft 383 kts 36°
2025-10-08 23:33 59.72820 25.33941 13785 ft 390 kts 36°
2025-10-08 23:33 59.75029 25.37136 14478 ft 394 kts 36°
2025-10-08 23:34 59.79466 25.43567 15803 ft 401 kts 36°
2025-10-08 23:34 59.86307 25.53537 17622 ft 411 kts 36°
2025-10-08 23:35 59.92339 25.65679 19277 ft 419 kts 55°
2025-10-08 23:36 59.95786 25.75176 20324 ft 425 kts 55°
2025-10-08 23:36 59.99283 25.84835 21304 ft 432 kts 55°
2025-10-08 23:36 60.01047 25.89718 21790 ft 434 kts 55°
2025-10-08 23:37 60.04591 25.99540 22690 ft 440 kts 55°
2025-10-08 23:37 60.08183 26.09562 23549 ft 445 kts 55°
2025-10-08 23:38 60.11792 26.19669 24356 ft 450 kts 56°
2025-10-08 23:38 60.15458 26.29994 25140 ft 456 kts 56°
2025-10-08 23:40 60.19970 26.77402 27862 ft 457 kts 111°
2025-10-08 23:42 60.13922 27.27918 30179 ft 472 kts 103°
2025-10-08 23:44 60.08755 27.78986 32982 ft 463 kts 103°
2025-10-08 23:46 60.04363 28.20845 34965 ft 461 kts 103°
2025-10-08 23:48 59.98192 28.77391 37017 ft 461 kts 103°
2025-10-08 23:50 59.93160 29.20588 37096 ft 456 kts 104°
2025-10-08 23:52 59.86460 29.75795 37115 ft 457 kts 104°
2025-10-08 23:54 59.81071 30.18688 37126 ft 457 kts 105°
2025-10-08 23:56 59.73847 30.73604 37126 ft 456 kts 105°
2025-10-08 23:58 59.67955 31.15833 37124 ft 455 kts 112°
2025-10-09 00:00 59.54537 31.65338 37119 ft 455 kts 118°
2025-10-09 00:02 59.39854 32.05577 37122 ft 455 kts 131°
2025-10-09 00:04 59.23082 32.42723 37123 ft 457 kts 131°
2025-10-09 00:06 59.06147 32.79630 37132 ft 457 kts 131°
2025-10-09 00:08 58.89202 33.15952 37126 ft 458 kts 132°
2025-10-09 00:10 58.74154 33.47722 37133 ft 459 kts 132°
2025-10-09 00:12 58.54609 33.88368 37139 ft 462 kts 133°
2025-10-09 00:14 58.39246 34.19797 37138 ft 463 kts 133°
2025-10-09 00:16 58.21548 34.55475 37199 ft 464 kts 134°
2025-10-09 00:18 57.99618 34.90632 37216 ft 456 kts 141°
2025-10-09 00:20 57.80119 35.20973 37201 ft 455 kts 142°
2025-10-09 00:22 57.60957 35.51924 37197 ft 460 kts 127°
2025-10-09 00:24 57.51369 35.96295 37197 ft 464 kts 111°
2025-10-09 00:26 57.43454 36.35680 37200 ft 465 kts 112°
2025-10-09 00:28 57.33101 36.86181 37192 ft 466 kts 112°
2025-10-09 00:30 57.24896 37.25342 37187 ft 467 kts 112°
2025-10-09 00:32 57.14903 37.75942 37184 ft 470 kts 106°
2025-10-09 00:34 57.08979 38.16673 37194 ft 472 kts 107°
2025-10-09 00:36 57.01415 38.67292 37218 ft 475 kts 107°
2025-10-09 00:39 56.93320 39.19661 37225 ft 475 kts 108°
2025-10-09 00:40 56.86866 39.60299 37221 ft 476 kts 108°
2025-10-09 00:42 56.80278 40.00843 37238 ft 477 kts 109°
2025-10-09 00:44 56.71628 40.53031 37222 ft 478 kts 110°
2025-10-09 00:46 56.64729 40.93494 37232 ft 479 kts 110°
2025-10-09 00:48 56.49842 41.39243 37226 ft 469 kts 131°
2025-10-09 00:50 56.36060 41.72081 37235 ft 469 kts 131°
2025-10-09 00:52 56.18206 42.14137 37235 ft 471 kts 130°
2025-10-09 00:54 56.03971 42.53633 37231 ft 472 kts 128°
2025-10-09 00:56 55.89002 42.91964 37230 ft 472 kts 129°
2025-10-09 00:58 55.74674 43.31201 37232 ft 476 kts 124°
2025-10-09 01:00 55.61491 43.71951 37220 ft 478 kts 120°
2025-10-09 01:03 55.58498 44.25306 37224 ft 490 kts 94°
2025-10-09 01:04 55.57477 44.67477 37221 ft 492 kts 94°
2025-10-09 01:07 55.42688 45.10643 37218 ft 468 kts 142°
2025-10-09 01:08 55.25834 45.37875 37237 ft 470 kts 143°
2025-10-09 01:10 55.08885 45.64927 37249 ft 472 kts 143°
2025-10-09 01:12 54.86964 45.99452 37252 ft 472 kts 143°
2025-10-09 01:14 54.69466 46.25171 37245 ft 470 kts 148°
2025-10-09 01:16 54.46343 46.56629 37244 ft 471 kts 147°
2025-10-09 01:18 54.25974 46.85068 37244 ft 480 kts 134°
2025-10-09 01:20 54.15040 47.27611 37241 ft 493 kts 114°
2025-10-09 01:23 54.03553 47.76436 37248 ft 495 kts 114°
2025-10-09 01:24 53.94379 48.14592 34222 ft 505 kts 114°
2025-10-09 01:26 53.85509 48.50924 24427 ft 491 kts 114°
2025-10-09 01:27 53.81764 48.66088 22517 ft 457 kts 115°
2025-10-09 01:27 53.79306 48.75964 20238 ft 454 kts 114°
2025-10-09 01:28 53.76951 48.85710 17516 ft 439 kts 109°
2025-10-09 01:28 53.75920 48.95623 14942 ft 423 kts 99°
2025-10-09 01:29 53.75133 49.05210 13122 ft 390 kts 99°
2025-10-09 01:29 53.74766 49.09579 12917 ft 359 kts 99°
2025-10-09 01:30 53.74108 49.17358 12380 ft 318 kts 99°
2025-10-09 01:30 53.73494 49.24582 11134 ft 308 kts 99°
2025-10-09 01:31 53.72592 49.35164 9619 ft 300 kts 100°
2025-10-09 01:31 53.71996 49.42059 8848 ft 298 kts 100°
2025-10-09 01:32 53.71407 49.48809 8086 ft 295 kts 100°
2025-10-09 01:32 53.71107 49.52217 7701 ft 292 kts 101°
2025-10-09 01:33 53.70512 49.58978 6944 ft 290 kts 101°
2025-10-09 01:33 53.69914 49.65713 6041 ft 287 kts 101°
2025-10-09 01:34 53.69042 49.75531 5586 ft 281 kts 101°
2025-10-09 01:34 53.68455 49.82018 5339 ft 277 kts 101°
2025-10-09 01:35 53.67902 49.88120 5097 ft 250 kts 101°
2025-10-09 01:35 53.67689 49.93598 4688 ft 224 kts 92°
2025-10-09 01:36 53.67683 49.98688 4166 ft 210 kts 92°
2025-10-09 01:36 53.67676 50.03308 4026 ft 180 kts 94°
2025-10-09 01:37 53.66998 50.06728 4008 ft 141 kts 131°
2025-10-09 01:37 53.65528 50.08636 3709 ft 137 kts 165°
2025-10-09 01:38 53.63793 50.09675 3302 ft 138 kts 163°
2025-10-09 01:38 53.62860 50.10237 2799 ft 146 kts 162°
2025-10-09 01:39 53.60130 50.11881 2001 ft 129 kts 159°
2025-10-09 01:39 53.58464 50.12886 1683 ft 127 kts 160°
2025-10-09 01:40 53.56805 50.13888 1352 ft 126 kts 160°
2025-10-09 01:40 53.55156 50.14892 1066 ft 126 kts 160°
2025-10-09 01:41 53.53524 50.15862 782 ft 125 kts 161°
2025-10-09 01:41 53.51893 50.16827 504 ft 124 kts 161°
2025-10-09 01:42 53.50740 50.17510 437 ft 21 kts 161°
2025-10-09 01:42 53.50593 50.17593 444 ft 23 kts 161°
2025-10-09 01:43 53.50452 50.17342 447 ft 6 kts 252°
2025-10-09 01:43 53.50470 50.17252 447 ft 3 kts 319°
2025-10-09 01:44 53.50531 50.17213 447 ft 14 kts 341°
2025-10-09 01:44 53.50803 50.17051 447 ft 21 kts 341°
2025-10-09 01:45 53.51077 50.16887 447 ft 18 kts 340°
2025-10-09 01:45 53.51277 50.16765 447 ft 14 kts 339°
2025-10-09 01:46 53.51313 50.16661 447 ft 11 kts 250°
2025-10-09 01:46 53.51252 50.16447 447 ft 11 kts 242°
2025-10-09 01:47 53.51166 50.15941 447 ft 4 kts 329°
2025-10-09 01:47 53.51174 50.15934 447 ft 0 kts 332°